Regional Weather Roundup
Issued by NWS

Home | Current Version | Previous Version | Graphics & Text | Print | Product List | Glossary On
Versions: 1 2 3 4 5 6 7 8 9 10 11 12 13 14 15 16 17 18 19 20 21 22 23 24 25 26 27 28 29 30 31 32 33 34 35 36 37 38 39 40 41 42 43 44 45 46 47 48 49 50
000
ASUS43 KIND 010559
RWRIN

WEATHER ROUNDUP FOR INDIANA
NATIONAL WEATHER SERVICE INDIANAPOLIS IN
200 AM EDT TUE SEP 01 2015

NOTE: "FAIR" INDICATES FEW OR NO CLOUDS BELOW 12,000 FEET WITH NO
SIGNIFICANT WEATHER AND/OR OBSTRUCTIONS TO VISIBILITY.

* - STATION DOES NOT REPORT WEATHER SUCH AS PRECIPITATION OR FOG.

+ - STATION NOT QUALITY CONTROLLED BY THE NATIONAL WEATHER SERVICE.
    USE DATA WITH CAUTION...ESPECIALLY DEWPOINT AND RELATIVE
    HUMIDITY OBSERVATIONS.

INZ001>003-010>013-019-020-010700-
NORTHWEST INDIANA

CITY           SKY/WX    TMP DP  RH WIND       PRES   REMARKS
RENSSELAER +   FAIR      68  68 100 CALM      30.08S

$$

LMZ046-743>745-010700-
SOUTHERN LAKE MICHIGAN

STATION/POSITION TIME  TEMP    WIND        PRES    WAVE
                       AIR SEA DIR/SP/G            HT
                 (UTC) (F)     (DEG/KT/KT) (MB)    (FT)
BURNS HARBOR     0500   76     190/  8/  9 1017.9S
MICHIGAN CITY    0500   75     120/  7/  8   N/A
5NW MICH CITY    0500   73 72  170/  4/  6   N/A     0

$$

INZ004-005-014>016-021>024-010700-
NORTH CENTRAL INDIANA

CITY           SKY/WX    TMP DP  RH WIND       PRES   REMARKS
GOSHEN         FAIR      68  66  93 S3        30.08S FOG
6HR MIN TEMP:  68; 6HR MAX TEMP:  80;

SOUTH BEND     FAIR      71  67  87 CALM      30.08S
6HR MIN TEMP:  70; 6HR MAX TEMP:  77;


$$

INZ006>009-017-018-025>027-010700-
NORTHEAST INDIANA

CITY           SKY/WX    TMP DP  RH WIND       PRES   REMARKS
ANGOLA *+      CLOUDY    66  57  72 CALM      30.09F VSB 1/4
FORT WAYNE     FAIR      72  69  90 SE3       30.10S
6HR MIN TEMP:  72; 6HR MAX TEMP:  80;


$$

INZ028-029-035-036-043>045-051>053-010700-
WEST CENTRAL INDIANA

CITY           SKY/WX    TMP DP  RH WIND       PRES   REMARKS
CRAWFORDSVL +  FAIR      65  65 100 SE5       30.10S
6HR MIN TEMP:  64; 6HR MAX TEMP:  77;

GREENCASTLE +  FAIR      68  64  88 CALM      30.11S
LAFAYETTE      FAIR      69  67  93 CALM      30.08S
6HR MIN TEMP:  68; 6HR MAX TEMP:  81;

TERRE HAUTE    FAIR      68  65  90 CALM      30.09S
6HR MIN TEMP:  68; 6HR MAX TEMP:  82;


$$

INZ030>032-037>040-046>048-054>057-064-065-010700-
CENTRAL INDIANA

CITY           SKY/WX    TMP DP  RH WIND       PRES   REMARKS
GREENWOOD *+   FAIR      72  66  83 SW3       30.11S
INDIANAPOLIS   MOCLDY    73  67  81 S3        30.10S
6HR MIN TEMP:  72; 6HR MAX TEMP:  80;

-EAGLE CREEK   FAIR      71  68  90 CALM      30.10S
6HR MIN TEMP:  71; 6HR MAX TEMP:  81;

KOKOMO *+      FAIR      70  63  78 SE6       30.10S
6HR MIN TEMP:  70; 6HR MAX TEMP:  82;

MT COMFORT *+  FAIR      68 N/A N/A CALM      30.12R
SHELBYVILLE    FAIR      69  65  86 SE5       30.11R
6HR MIN TEMP:  68; 6HR MAX TEMP:  81;


$$

INZ033-034-041-042-049-050-058-059-010700-
EAST CENTRAL INDIANA

CITY           SKY/WX    TMP DP  RH WIND       PRES   REMARKS
MUNCIE         FAIR      69  66  90 S3        30.11S
6HR MIN TEMP:  66; 6HR MAX TEMP:  76;


$$

INZ060-061-067>069-081>083-085>088-010700-
SOUTHWEST INDIANA

CITY           SKY/WX    TMP DP  RH WIND       PRES   REMARKS
EVANSVILLE     MOCLDY    71  68  90 CALM      30.10S
6HR MIN TEMP:  70; 6HR MAX TEMP:  83;

HUNTINGBURG *+ FAIR      66  63  88 CALM      30.11S
6HR MIN TEMP:  66; 6HR MAX TEMP:  81;


$$

INZ062-063-066-070>080-084-089>092-010700-
SOUTH CENTRAL AND SOUTHEAST INDIANA

CITY           SKY/WX    TMP DP  RH WIND       PRES   REMARKS
BLOOMINGTON    FAIR      67  65  93 CALM      30.11F FOG
6HR MIN TEMP:  67; 6HR MAX TEMP:  78;

MADISON *+     FAIR      66  64  94 CALM      30.14S
SEYMOUR +      FAIR      68  66  94 CALM      30.10F FOG

$$



USA.gov is the U.S. government's official web portal to all federal, state and local government web resources and services.